Hourly Weather Holovanivka

Today, 11 April, Sunday

Time Temperature Precipitation Wind Pressure Humidity
00:00 +4°C° 0 mm 2 mps 740 mmHg 69%
01:00 +4°C° 0 mm 2 mps 740 mmHg 71%
02:00 +4°C° 0 mm 2 mps 740 mmHg 72%
03:00 +3°C° 0 mm 3 mps 739 mmHg 74%
04:00 +3°C° 0 mm 3 mps 739 mmHg 76%
05:00 +3°C° 0 mm 3 mps 739 mmHg 78%
06:00 +4°C° 0 mm 4 mps 739 mmHg 76%
07:00 +5°C° 0 mm 5 mps 739 mmHg 75%
08:00 +5°C° 0 mm 6 mps 739 mmHg 73%
09:00 +5°C° 0.3 mm 6 mps 739 mmHg 76%
10:00 +5°C° 0.3 mm 5 mps 739 mmHg 78%
11:00 +5°C° 0.3 mm 5 mps 739 mmHg 80%
12:00 +5°C° 0.2 mm 4 mps 739 mmHg 78%
13:00 +5°C° 0.2 mm 4 mps 739 mmHg 76%
14:00 +5°C° 0.2 mm 4 mps 739 mmHg 75%
15:00 +6°C° 0.1 mm 4 mps 739 mmHg 74%
16:00 +7°C° 0.1 mm 3 mps 738 mmHg 72%
17:00 +7°C° 0.1 mm 3 mps 738 mmHg 71%
18:00 +7°C° 0.1 mm 3 mps 738 mmHg 75%
19:00 +6°C° 0.1 mm 2 mps 738 mmHg 79%
20:00 +6°C° 0.1 mm 2 mps 738 mmHg 82%
21:00 +6°C° 0.2 mm 2 mps 738 mmHg 83%
22:00 +6°C° 0.2 mm 2 mps 738 mmHg 85%
23:00 +7°C° 0.2 mm 1 mps 737 mmHg 86%

Tomorrow, 12 April, Monday

Time Temperature Precipitation Wind Pressure Humidity
00:00 +7°C° 1.3 mm 1 mps 737 mmHg 89%
01:00 +7°C° 1.3 mm 1 mps 737 mmHg 93%
02:00 +7°C° 1.3 mm 1 mps 737 mmHg 97%
03:00 +7°C° 0.1 mm 1 mps 737 mmHg 97%
04:00 +7°C° 0.1 mm 1 mps 737 mmHg 97%
05:00 +7°C° 0.1 mm 1 mps 737 mmHg 98%
06:00 +7°C° 0 mm 1 mps 737 mmHg 97%
07:00 +7°C° 0 mm 1 mps 737 mmHg 97%
08:00 +8°C° 0 mm 1 mps 737 mmHg 96%
09:00 +9°C° 0 mm 1 mps 737 mmHg 91%
10:00 +10°C° 0 mm 1 mps 737 mmHg 87%
11:00 +11°C° 0 mm 1 mps 737 mmHg 82%
12:00 +11°C° 0 mm 1 mps 737 mmHg 80%
13:00 +12°C° 0 mm 1 mps 738 mmHg 79%
14:00 +12°C° 0 mm 1 mps 738 mmHg 77%
15:00 +11°C° 0 mm 1 mps 738 mmHg 80%
16:00 +11°C° 0 mm 1 mps 738 mmHg 84%
17:00 +10°C° 0 mm 1 mps 738 mmHg 87%
18:00 +10°C° 0 mm 1 mps 738 mmHg 89%
19:00 +10°C° 0 mm 1 mps 738 mmHg 90%
20:00 +9°C° 0 mm 1 mps 739 mmHg 92%
21:00 +9°C° 0 mm 1 mps 739 mmHg 92%
22:00 +9°C° 0 mm 1 mps 738 mmHg 93%
23:00 +9°C° 0 mm 1 mps 738 mmHg 93%

Day after tomorrow, 13 April, Tuesday

Time Temperature Precipitation Wind Pressure Humidity
00:00 +8°C° 0 mm 1 mps 738 mmHg 93%
01:00 +8°C° 0 mm 1 mps 738 mmHg 93%
02:00 +8°C° 0 mm 1 mps 738 mmHg 93%
03:00 +8°C° 0 mm 1 mps 738 mmHg 93%
04:00 +8°C° 0 mm 1 mps 738 mmHg 93%
05:00 +8°C° 0 mm 1 mps 738 mmHg 93%
06:00 +8°C° 0 mm 1 mps 738 mmHg 90%
07:00 +9°C° 0 mm 1 mps 739 mmHg 87%
08:00 +10°C° 0 mm 1 mps 739 mmHg 85%
09:00 +11°C° 0 mm 1 mps 739 mmHg 81%
10:00 +10°C° 0 mm 2 mps 738 mmHg 77%
11:00 +12°C° 0 mm 2 mps 738 mmHg 73%
12:00 +12°C° 0 mm 2 mps 738 mmHg 73%
13:00 +12°C° 0 mm 2 mps 738 mmHg 73%
14:00 +11°C° 0 mm 3 mps 738 mmHg 72%
15:00 +10°C° 0.1 mm 2 mps 738 mmHg 76%
16:00 +10°C° 0.1 mm 2 mps 738 mmHg 79%
17:00 +9°C° 0.1 mm 2 mps 738 mmHg 82%
18:00 +10°C° 0 mm 1 mps 738 mmHg 84%
19:00 +9°C° 0 mm 1 mps 738 mmHg 86%
20:00 +9°C° 0 mm 1 mps 738 mmHg 88%
21:00 +8°C° 0 mm 1 mps 738 mmHg 88%
22:00 +7°C° 0 mm 1 mps 737 mmHg 89%
23:00 +7°C° 0 mm 1 mps 737 mmHg 89%

14 April, Wednesday

Time Temperature Precipitation Wind Pressure Humidity
00:00 +7°C° 0 mm 1 mps 737 mmHg 89%
01:00 +6°C° 0 mm 1 mps 737 mmHg 88%
02:00 +6°C° 0 mm 1 mps 737 mmHg 88%
03:00 +6°C° 0 mm 1 mps 736 mmHg 88%
04:00 +6°C° 0 mm 1 mps 736 mmHg 89%
05:00 +6°C° 0 mm 1 mps 736 mmHg 90%
06:00 +7°C° 0 mm 1 mps 736 mmHg 83%
07:00 +8°C° 0 mm 2 mps 736 mmHg 76%
08:00 +10°C° 0 mm 2 mps 736 mmHg 69%
09:00 +12°C° 0 mm 2 mps 736 mmHg 63%
10:00 +13°C° 0 mm 2 mps 736 mmHg 58%
11:00 +13°C° 0 mm 3 mps 736 mmHg 52%
12:00 +13°C° 0 mm 3 mps 735 mmHg 52%
13:00 +13°C° 0 mm 3 mps 735 mmHg 52%
14:00 +13°C° 0 mm 3 mps 735 mmHg 52%
15:00 +12°C° 0 mm 3 mps 735 mmHg 55%
16:00 +11°C° 0 mm 3 mps 735 mmHg 59%
17:00 +10°C° 0 mm 3 mps 735 mmHg 63%
18:00 +9°C° 0 mm 3 mps 735 mmHg 68%
19:00 +9°C° 0 mm 3 mps 734 mmHg 74%
20:00 +8°C° 0 mm 2 mps 734 mmHg 80%
21:00 +8°C° 0 mm 2 mps 734 mmHg 81%
22:00 +7°C° 0 mm 2 mps 734 mmHg 81%
23:00 +7°C° 0 mm 2 mps 734 mmHg 82%

15 April, Thursday

Time Temperature Precipitation Wind Pressure Humidity
00:00 +7°C° 0 mm 2 mps 734 mmHg 83%
01:00 +7°C° 0 mm 2 mps 734 mmHg 84%
02:00 +7°C° 0 mm 2 mps 733 mmHg 84%
03:00 +7°C° 0 mm 2 mps 733 mmHg 81%
04:00 +8°C° 0 mm 2 mps 733 mmHg 79%
05:00 +8°C° 0 mm 2 mps 733 mmHg 76%
06:00 +8°C° 0.4 mm 2 mps 733 mmHg 79%
07:00 +9°C° 0.4 mm 2 mps 733 mmHg 81%
08:00 +9°C° 0.4 mm 2 mps 733 mmHg 83%
09:00 +9°C° 1.7 mm 2 mps 733 mmHg 85%
10:00 +8°C° 1.7 mm 2 mps 733 mmHg 88%
11:00 +9°C° 1.7 mm 1 mps 733 mmHg 90%
12:00 +10°C° 0.3 mm 1 mps 733 mmHg 87%
13:00 +10°C° 0.3 mm 1 mps 733 mmHg 84%
14:00 +11°C° 0.3 mm 1 mps 733 mmHg 82%
15:00 +10°C° 0.1 mm 1 mps 733 mmHg 85%
16:00 +9°C° 0.1 mm 2 mps 733 mmHg 88%
17:00 +9°C° 0.1 mm 2 mps 733 mmHg 91%
18:00 +8°C° 0 mm 3 mps 733 mmHg 91%
19:00 +8°C° 0 mm 3 mps 733 mmHg 91%
20:00 +7°C° 0 mm 3 mps 734 mmHg 92%
21:00 +7°C° 0 mm 3 mps 734 mmHg 91%
22:00 +7°C° 0 mm 3 mps 734 mmHg 90%
23:00 +7°C° 0 mm 3 mps 734 mmHg 90%

16 April, Friday

Time Temperature Precipitation Wind Pressure Humidity
00:00 +7°C° 0 mm 3 mps 734 mmHg 89%
01:00 +7°C° 0 mm 3 mps 734 mmHg 88%
02:00 +5°C° 0 mm 3 mps 734 mmHg 88%
03:00 +5°C° 0 mm 3 mps 733 mmHg 87%
04:00 +5°C° 0 mm 3 mps 733 mmHg 86%
05:00 +5°C° 0 mm 3 mps 733 mmHg 86%
06:00 +7°C° 0 mm 3 mps 734 mmHg 80%
07:00 +8°C° 0 mm 3 mps 734 mmHg 74%
08:00 +9°C° 0 mm 3 mps 734 mmHg 68%
09:00 +10°C° 0 mm 3 mps 734 mmHg 62%
10:00 +11°C° 0 mm 4 mps 734 mmHg 57%
11:00 +13°C° 0 mm 4 mps 733 mmHg 51%
12:00 +12°C° 0.1 mm 5 mps 733 mmHg 52%
13:00 +12°C° 0.1 mm 5 mps 733 mmHg 53%
14:00 +10°C° 0.1 mm 5 mps 733 mmHg 54%
15:00 +9°C° 0.1 mm 5 mps 733 mmHg 60%
16:00 +8°C° 0.1 mm 5 mps 734 mmHg 65%
17:00 +7°C° 0.1 mm 4 mps 734 mmHg 71%
18:00 +7°C° 0.3 mm 4 mps 734 mmHg 75%
19:00 +6°C° 0.3 mm 4 mps 734 mmHg 79%
20:00 +5°C° 0.3 mm 3 mps 734 mmHg 82%
21:00 +5°C° 0.1 mm 3 mps 734 mmHg 84%
22:00 +6°C° 0.1 mm 2 mps 734 mmHg 85%
23:00 +6°C° 0.1 mm 2 mps 735 mmHg 86%
Show more